Akron, CO

7:17 PM MST on January 16, 2018 (GMT -0700)
Akron-Washington County

Weather History for KAKO - December, 2012

Change the Weather History Date:

Saturday, December 1, 2012

  Actual Average Record
Temperature  
Mean Temperature 49 °F 31 °F  
Max Temperature 64 °F 42 °F 70 °F (1998)
Min Temperature 33 °F 19 °F -14 °F (1985)
Degree Days  
Heating Degree Days 16    
Month to date heating degree days 16  
Cooling Degree Days 0    
Month to date cooling degree days 0  
Moisture  
Dew Point 23 °F    
Average Humidity 42    
Maximum Humidity 61    
Minimum Humidity 22    
Precipitation  
Precipitation 0.00 in 0.02 in 0.14 in (1950)
Month to date precipitation 0.00 0.02  
Year to date precipitation 7.85 16.36  
Snow  
Snow 0.00 in - - ()
Snow Depth -    
Sea Level Pressure  
Sea Level Pressure 29.89 in    
Wind  
Wind Speed 12 mph (West)    
Max Wind Speed 20 mph    
Max Gust Speed 22 mph    
Visibility 10 miles    
Events      
T = Trace of Precipitation, MM = Missing Value Source: NWS Daily Summary

Daily Weather History Graph

Daily Weather History Graph

Search for Another Location

Airport or City:

Trip Planner

Search our weather history database for the weather conditions in past years. The results will help you decide how hot, cold, wet, or windy it might be!

Date:

Astronomy

Dec. 01, 2012 Rise Set
Actual Time 6:56 AM MST 4:27 PM MST
Civil Twilight 6:26 AM MST 4:57 PM MST
Nautical Twilight 5:52 AM MST 5:31 PM MST
Astronomical Twilight 5:19 AM MST 6:04 PM MST
Moon 7:19 PM MST (12/1) 9:10 AM MST (12/1)
Length of Visible Light 10h 31m
Length of Day
9h 30m
Waning Gibbous, 91% of the Moon is Illuminated
Dec 1
Waning Gibbous
Dec 6
Last Quarter
Dec 13
New
Dec 19
First Quarter
Dec 28
Full

Hourly Weather History & Observations

Time (MST) Temp. Windchill Dew Point Humidity Pressure Visibility Wind Dir Wind Speed Gust Speed Precip Events Conditions
12:53 AM 41.0 °F 33.5 °F 19.9 °F 43% 29.74 in 10.0 mi West 13.8 mph - N/A   Clear
1:53 AM 34.0 °F 24.6 °F 21.0 °F 59% 29.76 in 10.0 mi West 13.8 mph - N/A   Clear
2:53 AM 34.0 °F 23.8 °F 21.0 °F 59% 29.77 in 10.0 mi WNW 16.1 mph - N/A   Clear
3:53 AM 36.0 °F 26.7 °F 21.9 °F 57% 29.79 in 10.0 mi WNW 15.0 mph - N/A   Clear
4:53 AM 37.0 °F 28.1 °F 21.0 °F 52% 29.83 in 10.0 mi WNW 15.0 mph - N/A   Clear
6:53 AM 37.9 °F 29.6 °F 21.0 °F 51% 29.87 in 10.0 mi West 13.8 mph - N/A   Mostly Cloudy
7:53 AM 37.9 °F 28.9 °F 21.9 °F 53% 29.91 in 10.0 mi West 16.1 mph - N/A   Partly Cloudy
8:53 AM 45.0 °F 38.9 °F 23.0 °F 42% 29.90 in 10.0 mi West 12.7 mph - N/A   Clear
9:53 AM 53.1 °F - 24.1 °F 32% 29.88 in 10.0 mi West 9.2 mph - N/A   Clear
10:53 AM 57.9 °F - 24.1 °F 27% 29.88 in 10.0 mi West 12.7 mph - N/A   Clear
11:53 AM 60.1 °F - 24.1 °F 25% 29.86 in 10.0 mi WSW 9.2 mph - N/A   Clear
12:53 PM 62.1 °F - 26.1 °F 25% 29.85 in 10.0 mi West 11.5 mph - N/A   Clear
1:53 PM 64.0 °F - 25.0 °F 23% 29.87 in 10.0 mi WNW 10.4 mph - N/A   Clear
2:53 PM 61.0 °F - 25.0 °F 25% 29.89 in 10.0 mi West 8.1 mph - N/A   Clear
3:53 PM 53.1 °F - 25.0 °F 34% 29.93 in 10.0 mi WSW 8.1 mph - N/A   Clear
4:53 PM 45.0 °F 40.6 °F 24.1 °F 44% 29.96 in 10.0 mi WSW 8.1 mph - N/A   Clear
5:53 PM 48.0 °F - 24.1 °F 39% 29.96 in 10.0 mi WNW 3.5 mph - N/A   Clear
6:53 PM 46.0 °F 44.8 °F 24.1 °F 42% 29.99 in 10.0 mi SSW 3.5 mph - N/A   Clear
7:53 PM 50.0 °F - 24.1 °F 36% 29.99 in 10.0 mi East 3.5 mph - N/A   Clear
8:53 PM 45.0 °F - 23.0 °F 42% 29.99 in 10.0 mi Calm Calm - N/A   Clear
9:53 PM 44.1 °F 40.1 °F 24.1 °F 45% 29.96 in 10.0 mi South 6.9 mph - N/A   Clear
10:53 PM 45.0 °F 40.6 °F 24.1 °F 44% 29.94 in 10.0 mi SSW 8.1 mph - N/A   Clear